Location: Enborne
(51.3833°N, 1.3667°W)
Time: 14:17:38
(UTC+00:00)

Cosmos 1844 Rocket - Pass Details

Date: 23 January 2021
Orbit: 826 x 843 km, 71.0° (Epoch: 05 March)

Event Time Altitude Azimuth Distance (km) Brightness Sun altitude
Rises 20:46:15 0° 268° (W) 3,398 6.7 -37.9°
Reaches altitude 10° 20:49:32 10° 287° (WNW) 2,464 5.8 -38.3°
Maximum altitude 20:53:19 18° 329° (NNW) 1,956 5.0 -38.9°
Enters shadow 20:53:44 18° 335° (NNW) 1,963 4.9 -39.0°
